User: anonymous   Login
Location: Obersdorf
(47.4079°N, 10.2781°E)
Time: 10:24:51
(UTC+01:00)
Language:

DOVE 4 - Orbit

View from above orbital plane
View from above orbital plane
View from above satellite
View from above satellite

Ground track
Ground track

The orbit data is extracted from the following two-line orbital elements,

1 39430U 13066Q   21334.28480385  .00000534  00000-0  10516-3 0  9994
2 39430  97.8138 247.8217 0149484 313.0169  45.8589 14.59757209427237
Epoch (UTC): 30 November 2021 06:50:07
Eccentricity: 0.0149484
inclination: 97.8138°
perigee height: 588 km
apogee height: 799 km
right ascension of ascending node: 247.8217°
argument of perigee: 313.0169°
revolutions per day: 14.59757209
mean anomaly at epoch: 45.8589°
orbit number at epoch: 42723

The dashed part of the orbit path shows where the satellite is in the earth's shadow,  

DLR